Tracking 19817 objects as of 18-Aug-2019
HD Live streaming from Space Station
objects crossing your sky now

FENGYUN 1C DEB

Track FENGYUN 1C DEB now!
10-day predictions


NORAD ID: 29803
Int'l Code: 1999-025CV
Perigee: 727.2 km
Apogee: 814.6 km
Inclination: 99.0 °
Period: 100.1 minutes
Semi major axis: 7141 km
RCS: 0.028 m2 (small)
Launch date: May 10, 1999
Source: People's Republic of China (PRC)
Launch site: Taiyaun Space Center, China (TSC)

Note: This is SATELLITE DEBRIS
aabbcc
Your satellite tracking list
Your tracking list is empty




NASA's NSSDC Master Catalog

Two Line Element Set (TLE):
1 29803U 99025CV  19228.58843995 +.00001318 +00000-0 +43870-3 0  9998
2 29803 098.9903 000.1600 0061158 241.0942 118.4100 14.38411256652511
Source of the keplerian elements: AFSPC